Estherville, IA

5:01 AM CDT on May 28, 2017 (GMT -0500)
Estherville Municipal

Weather History for KEST - January, 2012

Change the Weather History Date:

Wednesday, January 11, 2012

  Actual Average Record
Temperature  
Mean Temperature 27 °F 15 °F  
Max Temperature 39 °F 24 °F 52 °F (1990)
Min Temperature 14 °F 7 °F -27 °F (1982)
Degree Days  
Heating Degree Days 38 50  
Month to date heating degree days 378 545  
Since 1 July heating degree days 3064 3688  
Cooling Degree Days 0 0  
Month to date cooling degree days 0 0  
Year to date cooling degree days 0 0  
Moisture  
Dew Point 18 °F    
Average Humidity 77    
Maximum Humidity 92    
Minimum Humidity 61    
Precipitation  
Precipitation T in 0.01 in 1.37 in (1975)
Month to date precipitation T 0.08  
Year to date precipitation T  
Sea Level Pressure  
Sea Level Pressure 29.80 in    
Wind  
Wind Speed 24 mph (NNW)    
Max Wind Speed 40 mph    
Max Gust Speed 49 mph    
Visibility 9 miles    
Events Snow    
T = Trace of Precipitation, MM = Missing Value Source: NWS Daily Summary

Daily Weather History Graph

Daily Weather History Graph

Search for Another Location

Airport or City:

Trip Planner

Search our weather history database for the weather conditions in past years. The results will help you decide how hot, cold, wet, or windy it might be!

Date:

Astronomy

Jan. 11, 2012 Rise Set
Actual Time 7:50 AM CST 5:03 PM CST
Civil Twilight 7:18 AM CST 5:35 PM CST
Nautical Twilight 6:42 AM CST 6:10 PM CST
Astronomical Twilight 6:08 AM CST 6:45 PM CST
Moon 8:09 PM CST (1/11) 8:57 AM CST (1/11)
Length of Visible Light 10h 16m
Length of Day
9h 12m
Waning Gibbous, 93% of the Moon is Illuminated
Jan 11
Waning Gibbous
Jan 16
Last Quarter
Jan 23
New
Jan 30
First Quarter
Feb 7
Full

Hourly Weather History & Observations

Time (CST) Temp. Windchill Dew Point Humidity Pressure Visibility Wind Dir Wind Speed Gust Speed Precip Events Conditions
12:52 AM 36.0 °F 31.1 °F 28.0 °F 73% 29.63 in 10.0 mi SSW 5.8 mph - N/A   Clear
1:52 AM 33.1 °F 25.5 °F 28.0 °F 82% 29.62 in 10.0 mi South 9.2 mph - N/A   Clear
2:52 AM 30.9 °F 26.2 °F 26.1 °F 82% 29.62 in 10.0 mi SW 4.6 mph - N/A   Clear
3:52 AM 28.9 °F 23.9 °F 25.0 °F 85% 29.61 in 10.0 mi South 4.6 mph - N/A   Clear
4:52 AM 27.0 °F 23.0 °F 24.1 °F 89% 29.62 in 10.0 mi West 3.5 mph - N/A   Clear
5:52 AM 30.9 °F 22.2 °F 27.0 °F 85% 29.63 in 10.0 mi NNW 10.4 mph - N/A   Clear
6:52 AM 32.0 °F 21.2 °F 28.0 °F 85% 29.67 in 10.0 mi NNW 16.1 mph - N/A   Clear
7:32 AM 33.8 °F 22.2 °F 30.2 °F 87% 29.66 in 10.0 mi NNW 20.7 mph - N/A   Scattered Clouds
7:40 AM 33.8 °F 21.9 °F 32.0 °F 93% 29.66 in 10.0 mi NNW 21.9 mph 28.8 mph N/A   Mostly Cloudy
7:52 AM 35.1 °F 23.3 °F 33.1 °F 92% 29.70 in 10.0 mi NNW 23.0 mph 31.1 mph N/A   Overcast
8:52 AM 34.0 °F 20.8 °F 30.9 °F 89% 29.75 in 10.0 mi NNW 27.6 mph 38.0 mph N/A   Overcast
9:52 AM 34.0 °F 20.3 °F 30.0 °F 85% 29.76 in 10.0 mi NNW 29.9 mph 42.6 mph N/A   Overcast
10:52 AM 32.0 °F 16.5 °F 27.0 °F 82% 29.79 in 10.0 mi NNW 35.7 mph 43.7 mph N/A   Overcast
11:32 AM 30.2 °F 14.1 °F 24.8 °F 80% 29.76 in 10.0 mi NNW 35.7 mph 47.2 mph N/A   Overcast
11:52 AM 28.0 °F 11.3 °F 21.9 °F 78% 29.81 in 10.0 mi NNW 34.5 mph 43.7 mph N/A   Overcast
12:52 PM 25.0 °F 7.1 °F 19.0 °F 78% 29.83 in 7.0 mi NNW 34.5 mph 44.9 mph 0.00 in Snow Light Snow
1:02 PM 24.8 °F 6.4 °F 17.6 °F 74% 29.79 in 8.0 mi NNW 36.8 mph 48.3 mph 0.00 in Snow Light Snow
1:16 PM 24.8 °F 7.6 °F 17.6 °F 74% 29.80 in 2.0 mi NNW 31.1 mph 46.0 mph 0.00 in Snow Light Snow
1:18 PM 24.8 °F 6.8 °F 17.6 °F 74% 29.80 in 1.5 mi NNW 34.5 mph 46.0 mph 0.00 in Snow Light Snow
1:30 PM 23.0 °F 5.1 °F 17.6 °F 80% 29.80 in 3.0 mi NNW 31.1 mph 46.0 mph 0.00 in Snow Light Snow
1:52 PM 23.0 °F 4.6 °F 17.1 °F 78% 29.86 in 9.0 mi NNW 33.4 mph 44.9 mph 0.00 in   Overcast
2:37 PM 23.0 °F 3.9 °F 14.0 °F 68% 29.83 in 10.0 mi NNW 36.8 mph 47.2 mph N/A   Overcast
2:52 PM 21.9 °F 2.6 °F 12.9 °F 68% 29.88 in 10.0 mi NNW 35.7 mph 46.0 mph N/A   Overcast
3:39 PM 21.2 °F 2.4 °F 12.2 °F 68% 29.84 in 10.0 mi NNW 32.2 mph 41.4 mph 0.00 in Snow Light Snow
3:52 PM 21.0 °F 1.9 °F 12.0 °F 68% 29.91 in 9.0 mi NNW 33.4 mph 47.2 mph 0.00 in   Mostly Cloudy
4:17 PM 19.4 °F -0.0 °F 10.4 °F 68% 29.86 in 9.0 mi NNW 32.2 mph 42.6 mph 0.00 in   Mostly Cloudy
4:25 PM 19.4 °F 0.5 °F 10.4 °F 68% 29.86 in 10.0 mi NNW 29.9 mph 44.9 mph 0.00 in Snow Light Snow
4:52 PM 19.9 °F 0.4 °F 10.9 °F 68% 29.92 in 9.0 mi NNW 33.4 mph 43.7 mph 0.00 in Snow Light Snow
5:52 PM 19.0 °F 2.7 °F 12.9 °F 77% 29.94 in 3.0 mi NNW 20.7 mph 38.0 mph 0.00 in Snow Light Snow
6:52 PM 17.1 °F -4.6 °F 7.0 °F 65% 29.96 in 10.0 mi NNW 38.0 mph 46.0 mph 0.00 in   Overcast
7:52 PM 15.1 °F -5.9 °F 5.0 °F 64% 29.98 in 10.0 mi NNW 32.2 mph 48.3 mph N/A   Mostly Cloudy
8:52 PM 14.0 °F -6.8 °F 3.9 °F 64% 29.97 in 10.0 mi NNW 29.9 mph 41.4 mph N/A   Overcast
9:06 PM 14.0 °F -4.7 °F 5.0 °F 67% 29.91 in 10.0 mi NNW 23.0 mph 36.8 mph N/A   Overcast
9:52 PM 14.0 °F -5.8 °F 5.0 °F 67% 29.96 in 10.0 mi NNW 26.5 mph 38.0 mph N/A   Overcast
10:52 PM 14.0 °F -6.5 °F 6.1 °F 71% 29.96 in 10.0 mi NNW 28.8 mph 35.7 mph N/A   Overcast
11:52 PM 14.0 °F -5.1 °F 6.1 °F 71% 29.94 in 10.0 mi NNW 24.2 mph 29.9 mph N/A   Overcast